FORMATTED DATE-TIME,DT,MG,TR,WS,CW,HW,TP,WC,RH,HI,DP,WB,BP,AL,DA
YYYY-MM-DD HH:MM:SS,s,Mag,TRUE,mph,mph,mph,°F,°F,%,°F,°F,°F,inHg,m,m
08/10/2014  07:00:00,,185,185,1,,,61,,59,,,,,,
08/10/2014  08:00:00,,175,175,3,,,60,,63,,,,,,
08/10/2014  09:00:00,,342,342,1,,,60,,62,,,,,,
08/10/2014  10:00:00,,228,228,3,,,59,,64,,,,,,
08/10/2014  11:00:00,,225,225,4,,,57,,71,,,,,,
08/10/2014  12:00:00,,221,221,3,,,60,,68,,,,,,
08/10/2014  13:00:00,,56,56,3,,,61,,67,,,,,,
08/10/2014  14:00:00,,61,61,1,,,67,,56,,,,,,
08/10/2014  15:00:00,,284,284,3,,,71,,56,,,,,,
08/10/2014  16:00:00,,352,352,3,,,76,,43,,,,,,
08/10/2014  17:00:00,,38,38,3,,,80,,46,,,,,,
08/10/2014  18:00:00,,51,51,3,,,85,,44,,,,,,
08/10/2014  19:00:00,,124,124,5,,,86,,39,,,,,,
08/10/2014  20:00:00,,129,129,6,,,89,,39,,,,,,
08/10/2014  21:00:00,,88,88,6,,,87,,38,,,,,,
08/10/2014  22:00:00,,130,130,5,,,83,,44,,,,,,
08/10/2014  23:00:00,,135,135,7,,,83,,40,,,,,,
08/11/2014  00:00:00,,60,60,2,,,80,,43,,,,,,
08/11/2014  01:00:00,,161,161,6,,,75,,50,,,,,,
08/11/2014  02:00:00,,193,193,13,,,74,,50,,,,,,
08/11/2014  03:00:00,,202,202,15,,,74,,46,,,,,,
08/11/2014  04:00:00,,206,206,13,,,75,,38,,,,,,
08/11/2014  05:00:00,,212,212,12,,,72,,49,,,,,,
08/11/2014  06:00:00,,211,211,10,,,71,,50,,,,,,
08/11/2014  07:00:00,,204,204,11,,,72,,42,,,,,,
08/11/2014  08:00:00,,225,225,7,,,74,,38,,,,,,
08/11/2014  09:00:00,,248,248,6,,,74,,37,,,,,,
08/11/2014  10:00:00,,255,255,4,,,74,,38,,,,,,
08/11/2014  11:00:00,,198,198,2,,,74,,36,,,,,,
08/11/2014  12:00:00,,225,225,3,,,72,,39,,,,,,
08/11/2014  13:00:00,,213,213,5,,,73,,43,,,,,,
08/11/2014  14:00:00,,220,220,4,,,79,,38,,,,,,
08/11/2014  15:00:00,,283,283,4,,,85,,30,,,,,,
08/11/2014  16:00:00,,261,261,6,,,83,,33,,,,,,
08/11/2014  17:00:00,,317,317,2,,,84,,29,,,,,,
08/11/2014  18:00:00,,344,344,3,,,87,,34,,,,,,
08/11/2014  19:00:00,,8,8,3,,,90,,27,,,,,,
08/11/2014  20:00:00,,144,144,4,,,94,,28,,,,,,
08/11/2014  21:00:00,,91,91,6,,,94,,27,,,,,,
08/11/2014  22:00:00,,69,69,6,,,95,,23,,,,,,
08/11/2014  23:00:00,,92,92,7,,,87,,32,,,,,,
08/12/2014  00:00:00,,132,132,8,,,84,,39,,,,,,
08/12/2014  01:00:00,,124,124,13,,,78,,52,,,,,,
08/12/2014  02:00:00,,95,95,5,,,74,,60,,,,,,
08/12/2014  03:00:00,,333,333,3,,,67,,89,,,,,,
08/12/2014  04:00:00,,207,207,7,,,68,,64,,,,,,
08/12/2014  05:00:00,,241,241,6,,,70,,55,,,,,,
08/12/2014  06:00:00,,221,221,7,,,73,,45,,,,,,
08/12/2014  07:00:00,,20,20,1,,,71,,49,,,,,,
08/12/2014  08:00:00,,68,68,3,,,68,,56,,,,,,
08/12/2014  09:00:00,,178,178,2,,,65,,58,,,,,,
08/12/2014  10:00:00,,1,1,2,,,64,,73,,,,,,
08/12/2014  11:00:00,,216,216,3,,,62,,75,,,,,,
08/12/2014  12:00:00,,36,36,2,,,64,,69,,,,,,
08/12/2014  13:00:00,,73,73,3,,,63,,75,,,,,,
08/12/2014  14:00:00,,264,264,2,,,72,,63,,,,,,
08/12/2014  15:00:00,,113,113,3,,,65,,77,,,,,,
08/12/2014  16:00:00,,193,193,6,,,62,,90,,,,,,
08/12/2014  17:00:00,,28,28,1,,,71,,83,,,,,,
08/12/2014  18:00:00,,27,27,3,,,76,,70,,,,,,
08/12/2014  19:00:00,,112,112,8,,,74,,67,,,,,,
08/12/2014  20:00:00,,112,112,8,,,72,,68,,,,,,
08/12/2014  21:00:00,,110,110,9,,,70,,70,,,,,,
08/12/2014  22:00:00,,296,296,9,,,61,,85,,,,,,
08/12/2014  23:00:00,,222,222,6,,,57,,93,,,,,,
08/13/2014  00:00:00,,308,308,8,,,56,,94,,,,,,
08/13/2014  01:00:00,,284,284,6,,,57,,93,,,,,,
08/13/2014  02:00:00,,45,45,3,,,56,,96,,,,,,
08/13/2014  03:00:00,,115,115,4,,,55,,98,,,,,,
08/13/2014  04:00:00,,135,135,9,,,54,,99,,,,,,
08/13/2014  05:00:00,,133,133,4,,,54,,100,,,,,,
08/13/2014  06:00:00,,233,233,1,,,54,,100,,,,,,
08/13/2014  07:00:00,,198,198,3,,,54,,100,,,,,,
08/13/2014  08:00:00,,243,243,3,,,54,,100,,,,,,
08/13/2014  09:00:00,,191,191,2,,,52,,100,,,,,,
08/13/2014  10:00:00,,146,146,3,,,53,,100,,,,,,
08/13/2014  11:00:00,,254,254,3,,,53,,100,,,,,,
08/13/2014  12:00:00,,240,240,4,,,53,,100,,,,,,
08/13/2014  13:00:00,,257,257,4,,,53,,100,,,,,,
08/13/2014  14:00:00,,145,145,4,,,54,,100,,,,,,
08/13/2014  15:00:00,,16,16,1,,,55,,100,,,,,,
08/13/2014  16:00:00,,118,118,4,,,54,,100,,,,,,
08/13/2014  17:00:00,,220,220,3,,,55,,100,,,,,,
08/13/2014  18:00:00,,303,303,2,,,55,,99,,,,,,
08/13/2014  19:00:00,,320,320,2,,,59,,94,,,,,,
08/13/2014  20:00:00,,94,94,2,,,62,,84,,,,,,
08/13/2014  21:00:00,,9,9,1,,,62,,85,,,,,,
08/13/2014  22:00:00,,102,102,5,,,61,,88,,,,,,
08/13/2014  23:00:00,,85,85,4,,,61,,87,,,,,,
08/14/2014  00:00:00,,107,107,4,,,60,,90,,,,,,
08/14/2014  01:00:00,,103,103,0,,,59,,92,,,,,,
08/14/2014  02:00:00,,163,163,2,,,57,,94,,,,,,
08/14/2014  03:00:00,,302,302,1,,,57,,91,,,,,,
08/14/2014  04:00:00,,55,55,3,,,57,,98,,,,,,
08/14/2014  05:00:00,,99,99,3,,,57,,99,,,,,,
08/14/2014  06:00:00,,76,76,6,,,56,,100,,,,,,
08/14/2014  07:00:00,,125,125,5,,,55,,100,,,,,,
08/14/2014  08:00:00,,120,120,2,,,55,,100,,,,,,
08/14/2014  09:00:00,,118,118,1,,,55,,100,,,,,,
08/14/2014  10:00:00,,142,142,4,,,55,,100,,,,,,
08/14/2014  11:00:00,,116,116,4,,,54,,100,,,,,,
08/14/2014  12:00:00,,139,139,4,,,54,,100,,,,,,
08/14/2014  13:00:00,,83,83,1,,,54,,100,,,,,,
08/14/2014  14:00:00,,64,64,1,,,55,,100,,,,,,
08/14/2014  15:00:00,,127,127,1,,,57,,99,,,,,,
08/14/2014  16:00:00,,45,45,2,,,60,,89,,,,,,
08/14/2014  17:00:00,,347,347,4,,,68,,69,,,,,,
08/14/2014  18:00:00,,50,50,4,,,71,,61,,,,,,
08/14/2014  19:00:00,,110,110,5,,,64,,75,,,,,,
08/14/2014  20:00:00,,38,38,3,,,70,,60,,,,,,
08/14/2014  21:00:00,,72,72,3,,,68,,65,,,,,,
08/14/2014  22:00:00,,68,68,3,,,66,,67,,,,,,
08/14/2014  23:00:00,,84,84,4,,,65,,72,,,,,,
08/15/2014  00:00:00,,101,101,4,,,63,,76,,,,,,
08/15/2014  01:00:00,,119,119,7,,,60,,88,,,,,,
08/15/2014  02:00:00,,136,136,7,,,57,,95,,,,,,
08/15/2014  03:00:00,,141,141,6,,,56,,97,,,,,,
08/15/2014  04:00:00,,146,146,2,,,56,,98,,,,,,
08/15/2014  05:00:00,,120,120,5,,,56,,100,,,,,,
08/15/2014  06:00:00,,156,156,3,,,56,,100,,,,,,
08/15/2014  07:00:00,,154,154,3,,,56,,100,,,,,,
08/15/2014  08:00:00,,235,235,2,,,56,,100,,,,,,
08/15/2014  09:00:00,,219,219,2,,,56,,100,,,,,,
08/15/2014  10:00:00,,319,319,2,,,56,,100,,,,,,
08/15/2014  11:00:00,,311,311,0,,,55,,100,,,,,,
08/15/2014  12:00:00,,295,295,1,,,55,,100,,,,,,
08/15/2014  13:00:00,,225,225,2,,,55,,100,,,,,,
08/15/2014  14:00:00,,224,224,2,,,57,,100,,,,,,
08/15/2014  15:00:00,,346,346,2,,,60,,95,,,,,,
08/15/2014  16:00:00,,18,18,3,,,65,,75,,,,,,
08/15/2014  17:00:00,,91,91,4,,,71,,69,,,,,,
08/15/2014  18:00:00,,96,96,5,,,72,,68,,,,,,
08/15/2014  19:00:00,,71,71,5,,,75,,58,,,,,,
08/15/2014  20:00:00,,74,74,5,,,78,,52,,,,,,
08/15/2014  21:00:00,,84,84,8,,,76,,52,,,,,,
08/15/2014  22:00:00,,115,115,7,,,75,,55,,,,,,
08/15/2014  23:00:00,,101,101,7,,,74,,55,,,,,,
08/16/2014  00:00:00,,116,116,6,,,71,,60,,,,,,
08/16/2014  01:00:00,,136,136,8,,,67,,72,,,,,,
08/16/2014  02:00:00,,158,158,7,,,61,,82,,,,,,
08/16/2014  03:00:00,,257,257,2,,,60,,84,,,,,,
08/16/2014  04:00:00,,207,207,4,,,58,,92,,,,,,
08/16/2014  05:00:00,,278,278,1,,,58,,95,,,,,,
08/16/2014  06:00:00,,208,208,2,,,57,,93,,,,,,
08/16/2014  07:00:00,,193,193,2,,,56,,97,,,,,,
08/16/2014  08:00:00,,194,194,3,,,56,,98,,,,,,
08/16/2014  09:00:00,,209,209,4,,,55,,99,,,,,,
08/16/2014  10:00:00,,196,196,4,,,55,,100,,,,,,
08/16/2014  11:00:00,,186,186,4,,,55,,98,,,,,,
08/16/2014  12:00:00,,216,216,2,,,56,,91,,,,,,
08/16/2014  13:00:00,,175,175,2,,,58,,89,,,,,,
08/16/2014  14:00:00,,294,294,2,,,66,,73,,,,,,
08/16/2014  15:00:00,,47,47,2,,,70,,67,,,,,,
08/16/2014  16:00:00,,17,17,3,,,74,,64,,,,,,
08/16/2014  17:00:00,,18,18,3,,,78,,59,,,,,,
08/16/2014  18:00:00,,46,46,3,,,82,,43,,,,,,
08/16/2014  19:00:00,,127,127,6,,,84,,50,,,,,,
08/16/2014  20:00:00,,111,111,8,,,80,,51,,,,,,
08/16/2014  21:00:00,,100,100,7,,,81,,49,,,,,,
08/16/2014  22:00:00,,76,76,6,,,83,,41,,,,,,
08/16/2014  23:00:00,,92,92,8,,,80,,45,,,,,,
08/17/2014  00:00:00,,86,86,9,,,75,,46,,,,,,
08/17/2014  01:00:00,,111,111,7,,,73,,50,,,,,,
08/17/2014  02:00:00,,154,154,7,,,67,,59,,,,,,
08/17/2014  03:00:00,,155,155,7,,,66,,64,,,,,,
08/17/2014  04:00:00,,151,151,2,,,63,,72,,,,,,
08/17/2014  05:00:00,,144,144,3,,,62,,72,,,,,,
08/17/2014  06:00:00,,87,87,2,,,63,,71,,,,,,
08/17/2014  07:00:00,,258,258,2,,,62,,73,,,,,,
08/17/2014  08:00:00,,176,176,2,,,60,,77,,,,,,
08/17/2014  09:00:00,,213,213,3,,,60,,76,,,,,,
08/17/2014  10:00:00,,126,126,2,,,60,,78,,,,,,
08/17/2014  11:00:00,,82,82,2,,,60,,77,,,,,,
08/17/2014  12:00:00,,245,245,1,,,59,,81,,,,,,
08/17/2014  13:00:00,,137,137,0,,,60,,77,,,,,,
08/17/2014  14:00:00,,268,268,2,,,68,,63,,,,,,
08/17/2014  15:00:00,,61,61,2,,,72,,61,,,,,,
08/17/2014  16:00:00,,5,5,3,,,76,,55,,,,,,
08/17/2014  17:00:00,,158,158,5,,,78,,53,,,,,,
08/17/2014  18:00:00,,105,105,8,,,77,,53,,,,,,
08/17/2014  19:00:00,,112,112,7,,,81,,49,,,,,,
08/17/2014  20:00:00,,113,113,7,,,82,,48,,,,,,
08/17/2014  21:00:00,,98,98,8,,,82,,43,,,,,,
08/17/2014  22:00:00,,141,141,9,,,81,,41,,,,,,
08/17/2014  23:00:00,,146,146,7,,,79,,43,,,,,,
08/18/2014  00:00:00,,143,143,6,,,75,,48,,,,,,
08/18/2014  01:00:00,,133,133,5,,,74,,48,,,,,,
08/18/2014  02:00:00,,148,148,11,,,69,,56,,,,,,
08/18/2014  03:00:00,,155,155,9,,,67,,60,,,,,,
08/18/2014  04:00:00,,189,189,2,,,65,,64,,,,,,
08/18/2014  05:00:00,,143,143,5,,,64,,67,,,,,,
08/18/2014  06:00:00,,151,151,5,,,62,,76,,,,,,
08/18/2014  07:00:00,,287,287,2,,,61,,79,,,,,,
08/18/2014  08:00:00,,190,190,3,,,59,,84,,,,,,
08/18/2014  09:00:00,,156,156,3,,,58,,85,,,,,,
08/18/2014  10:00:00,,93,93,3,,,59,,82,,,,,,
08/18/2014  11:00:00,,181,181,2,,,59,,84,,,,,,
08/18/2014  12:00:00,,190,190,3,,,57,,88,,,,,,
08/18/2014  13:00:00,,182,182,2,,,58,,84,,,,,,
08/18/2014  14:00:00,,325,325,1,,,66,,71,,,,,,
08/18/2014  15:00:00,,288,288,2,,,69,,67,,,,,,
08/18/2014  16:00:00,,337,337,2,,,72,,58,,,,,,
08/18/2014  17:00:00,,18,18,3,,,78,,55,,,,,,
08/18/2014  18:00:00,,130,130,7,,,80,,53,,,,,,
08/18/2014  19:00:00,,123,123,9,,,79,,53,,,,,,
08/18/2014  20:00:00,,123,123,9,,,83,,46,,,,,,
08/18/2014  21:00:00,,115,115,9,,,83,,45,,,,,,
08/18/2014  22:00:00,,105,105,9,,,83,,45,,,,,,
08/18/2014  23:00:00,,129,129,6,,,83,,42,,,,,,
08/19/2014  00:00:00,,135,135,9,,,77,,50,,,,,,
08/19/2014  01:00:00,,106,106,5,,,76,,53,,,,,,
08/19/2014  02:00:00,,125,125,8,,,71,,57,,,,,,
08/19/2014  03:00:00,,130,130,4,,,71,,56,,,,,,
08/19/2014  04:00:00,,119,119,5,,,69,,64,,,,,,
08/19/2014  05:00:00,,149,149,2,,,66,,71,,,,,,
08/19/2014  06:00:00,,153,153,2,,,64,,78,,,,,,
08/19/2014  07:00:00,,176,176,3,,,62,,83,,,,,,
08/19/2014  08:00:00,,231,231,2,,,63,,80,,,,,,
08/19/2014  09:00:00,,107,107,3,,,62,,82,,,,,,
08/19/2014  10:00:00,,69,69,2,,,61,,87,,,,,,
08/19/2014  11:00:00,,138,138,5,,,60,,90,,,,,,
08/19/2014  12:00:00,,203,203,2,,,58,,95,,,,,,
08/19/2014  13:00:00,,208,208,4,,,59,,93,,,,,,
08/19/2014  14:00:00,,193,193,1,,,63,,87,,,,,,
08/19/2014  15:00:00,,10,10,2,,,68,,75,,,,,,
08/19/2014  16:00:00,,318,318,4,,,72,,67,,,,,,
08/19/2014  17:00:00,,122,122,6,,,76,,60,,,,,,
08/19/2014  18:00:00,,95,95,8,,,75,,59,,,,,,
08/19/2014  19:00:00,,116,116,5,,,79,,52,,,,,,
08/19/2014  20:00:00,,89,89,6,,,81,,47,,,,,,
08/19/2014  21:00:00,,49,49,5,,,85,,37,,,,,,
08/19/2014  22:00:00,,94,94,6,,,83,,38,,,,,,
08/19/2014  23:00:00,,111,111,9,,,78,,39,,,,,,
08/20/2014  00:00:00,,116,116,8,,,74,,38,,,,,,
08/20/2014  01:00:00,,120,120,8,,,71,,54,,,,,,
08/20/2014  02:00:00,,122,122,8,,,67,,62,,,,,,
08/20/2014  03:00:00,,132,132,12,,,63,,77,,,,,,
08/20/2014  04:00:00,,121,121,10,,,61,,84,,,,,,
08/20/2014  05:00:00,,117,117,6,,,58,,92,,,,,,
08/20/2014  06:00:00,,111,111,5,,,56,,98,,,,,,
08/20/2014  07:00:00,,159,159,3,,,56,,98,,,,,,
08/20/2014  08:00:00,,134,134,5,,,57,,96,,,,,,
08/20/2014  09:00:00,,46,46,2,,,57,,96,,,,,,
08/20/2014  10:00:00,,329,329,1,,,56,,98,,,,,,
08/20/2014  11:00:00,,214,214,2,,,56,,100,,,,,,
08/20/2014  12:00:00,,278,278,0,,,56,,99,,,,,,
08/20/2014  13:00:00,,228,228,2,,,56,,99,,,,,,
08/20/2014  14:00:00,,130,130,6,,,57,,97,,,,,,
08/20/2014  15:00:00,,167,167,2,,,57,,98,,,,,,
08/20/2014  16:00:00,,153,153,3,,,59,,93,,,,,,
08/20/2014  17:00:00,,129,129,2,,,63,,85,,,,,,
08/20/2014  18:00:00,,97,97,5,,,62,,90,,,,,,
08/20/2014  19:00:00,,132,132,8,,,63,,81,,,,,,
08/20/2014  20:00:00,,127,127,8,,,71,,61,,,,,,
08/20/2014  21:00:00,,98,98,7,,,74,,54,,,,,,
08/20/2014  22:00:00,,127,127,8,,,67,,64,,,,,,
08/20/2014  23:00:00,,96,96,7,,,69,,54,,,,,,
08/21/2014  00:00:00,,111,111,6,,,66,,61,,,,,,
08/21/2014  01:00:00,,145,145,7,,,63,,63,,,,,,
08/21/2014  02:00:00,,152,152,9,,,58,,68,,,,,,
08/21/2014  03:00:00,,156,156,7,,,57,,61,,,,,,
08/21/2014  04:00:00,,160,160,6,,,57,,63,,,,,,
08/21/2014  05:00:00,,140,140,7,,,54,,77,,,,,,
08/21/2014  06:00:00,,193,193,3,,,51,,77,,,,,,
08/21/2014  07:00:00,,167,167,2,,,52,,74,,,,,,
08/21/2014  08:00:00,,177,177,2,,,52,,82,,,,,,
08/21/2014  09:00:00,,77,77,2,,,51,,86,,,,,,
08/21/2014  10:00:00,,200,200,3,,,48,,91,,,,,,
08/21/2014  11:00:00,,187,187,2,,,50,,84,,,,,,
08/21/2014  12:00:00,,215,215,4,,,49,,82,,,,,,
08/21/2014  13:00:00,,202,202,3,,,51,,81,,,,,,
08/21/2014  14:00:00,,235,235,3,,,61,,62,,,,,,
08/21/2014  15:00:00,,53,53,3,,,65,,57,,,,,,
08/21/2014  16:00:00,,359,359,3,,,69,,52,,,,,,
08/21/2014  17:00:00,,23,23,4,,,73,,44,,,,,,
08/21/2014  18:00:00,,99,99,5,,,73,,41,,,,,,
08/21/2014  19:00:00,,79,79,5,,,76,,33,,,,,,
08/21/2014  20:00:00,,98,98,5,,,77,,24,,,,,,
08/21/2014  21:00:00,,69,69,5,,,79,,24,,,,,,
08/21/2014  22:00:00,,97,97,8,,,75,,31,,,,,,
08/21/2014  23:00:00,,52,52,6,,,78,,32,,,,,,
08/22/2014  00:00:00,,96,96,5,,,71,,35,,,,,,
08/22/2014  01:00:00,,113,113,6,,,68,,37,,,,,,
08/22/2014  02:00:00,,109,109,8,,,62,,50,,,,,,
08/22/2014  03:00:00,,106,106,9,,,60,,54,,,,,,
08/22/2014  04:00:00,,112,112,10,,,57,,54,,,,,,
08/22/2014  05:00:00,,115,115,7,,,56,,55,,,,,,
08/22/2014  06:00:00,,101,101,4,,,55,,59,,,,,,
08/22/2014  07:00:00,,128,128,4,,,52,,67,,,,,,
08/22/2014  08:00:00,,125,125,5,,,54,,64,,,,,,
08/22/2014  09:00:00,,91,91,1,,,52,,77,,,,,,
08/22/2014  10:00:00,,123,123,2,,,53,,80,,,,,,
08/22/2014  11:00:00,,66,66,2,,,53,,88,,,,,,
08/22/2014  12:00:00,,84,84,1,,,52,,95,,,,,,
08/22/2014  13:00:00,,162,162,0,,,52,,95,,,,,,
08/22/2014  14:00:00,,331,331,2,,,55,,83,,,,,,
08/22/2014  15:00:00,,22,22,3,,,63,,62,,,,,,
08/22/2014  16:00:00,,97,97,3,,,65,,64,,,,,,
08/22/2014  17:00:00,,118,118,6,,,67,,57,,,,,,
08/22/2014  18:00:00,,129,129,7,,,73,,47,,,,,,
08/22/2014  19:00:00,,111,111,5,,,72,,44,,,,,,
08/22/2014  20:00:00,,157,157,7,,,74,,40,,,,,,
08/22/2014  21:00:00,,155,155,5,,,75,,42,,,,,,
08/22/2014  22:00:00,,159,159,6,,,70,,47,,,,,,
08/22/2014  23:00:00,,122,122,6,,,72,,43,,,,,,
08/23/2014  00:00:00,,108,108,8,,,67,,49,,,,,,
08/23/2014  01:00:00,,145,145,6,,,65,,52,,,,,,
08/23/2014  02:00:00,,153,153,9,,,61,,55,,,,,,
08/23/2014  03:00:00,,156,156,8,,,60,,55,,,,,,
08/23/2014  04:00:00,,158,158,7,,,58,,62,,,,,,
08/23/2014  05:00:00,,156,156,4,,,56,,73,,,,,,
08/23/2014  06:00:00,,190,190,4,,,54,,74,,,,,,
08/23/2014  07:00:00,,177,177,3,,,54,,77,,,,,,
08/23/2014  08:00:00,,195,195,3,,,54,,73,,,,,,
08/23/2014  09:00:00,,155,155,0,,,54,,72,,,,,,
08/23/2014  10:00:00,,269,269,2,,,55,,71,,,,,,
08/23/2014  11:00:00,,83,83,3,,,54,,73,,,,,,
08/23/2014  12:00:00,,249,249,4,,,53,,78,,,,,,
08/23/2014  13:00:00,,135,135,2,,,57,,65,,,,,,
08/23/2014  14:00:00,,258,258,2,,,64,,58,,,,,,
08/23/2014  15:00:00,,228,228,6,,,68,,51,,,,,,
08/23/2014  16:00:00,,232,232,6,,,73,,41,,,,,,
08/23/2014  17:00:00,,335,335,5,,,78,,40,,,,,,
08/23/2014  18:00:00,,128,128,7,,,78,,39,,,,,,
08/23/2014  19:00:00,,102,102,9,,,77,,46,,,,,,
08/23/2014  20:00:00,,123,123,9,,,79,,32,,,,,,
08/23/2014  21:00:00,,114,114,10,,,79,,38,,,,,,
08/23/2014  22:00:00,,137,137,10,,,78,,36,,,,,,
08/23/2014  23:00:00,,131,131,10,,,77,,36,,,,,,
08/24/2014  00:00:00,,138,138,9,,,74,,40,,,,,,
08/24/2014  01:00:00,,136,136,10,,,71,,43,,,,,,
08/24/2014  02:00:00,,146,146,12,,,67,,47,,,,,,
08/24/2014  03:00:00,,153,153,5,,,65,,50,,,,,,
08/24/2014  04:00:00,,178,178,3,,,63,,54,,,,,,
08/24/2014  05:00:00,,146,146,6,,,62,,53,,,,,,
08/24/2014  06:00:00,,158,158,4,,,59,,58,,,,,,
08/24/2014  07:00:00,,162,162,4,,,59,,58,,,,,,
08/24/2014  08:00:00,,235,235,3,,,59,,56,,,,,,
08/24/2014  09:00:00,,268,268,1,,,58,,62,,,,,,
08/24/2014  10:00:00,,199,199,3,,,57,,68,,,,,,
08/24/2014  11:00:00,,170,170,2,,,57,,65,,,,,,
08/24/2014  12:00:00,,124,124,3,,,58,,65,,,,,,
08/24/2014  13:00:00,,190,190,2,,,58,,65,,,,,,
08/24/2014  14:00:00,,273,273,3,,,65,,54,,,,,,
08/24/2014  15:00:00,,38,38,3,,,70,,52,,,,,,
08/24/2014  16:00:00,,194,194,3,,,73,,46,,,,,,
08/24/2014  17:00:00,,152,152,5,,,75,,43,,,,,,
08/24/2014  18:00:00,,119,119,6,,,79,,40,,,,,,
08/24/2014  19:00:00,,64,64,5,,,81,,37,,,,,,
08/24/2014  20:00:00,,68,68,9,,,80,,34,,,,,,
08/24/2014  21:00:00,,92,92,8,,,79,,31,,,,,,
08/24/2014  22:00:00,,100,100,7,,,78,,27,,,,,,
08/24/2014  23:00:00,,104,104,6,,,76,,23,,,,,,
08/25/2014  00:00:00,,113,113,7,,,71,,27,,,,,,
08/25/2014  01:00:00,,140,140,5,,,67,,38,,,,,,
08/25/2014  02:00:00,,139,139,7,,,64,,43,,,,,,
08/25/2014  03:00:00,,149,149,6,,,62,,40,,,,,,
08/25/2014  04:00:00,,116,116,4,,,59,,73,,,,,,
08/25/2014  05:00:00,,134,134,4,,,57,,72,,,,,,
08/25/2014  06:00:00,,183,183,1,,,54,,84,,,,,,
08/25/2014  07:00:00,,357,357,1,,,55,,73,,,,,,
08/25/2014  08:00:00,,246,246,3,,,55,,67,,,,,,
08/25/2014  09:00:00,,193,193,2,,,55,,60,,,,,,
08/25/2014  10:00:00,,196,196,3,,,54,,63,,,,,,
08/25/2014  11:00:00,,202,202,4,,,55,,62,,,,,,
08/25/2014  12:00:00,,233,233,3,,,56,,58,,,,,,
08/25/2014  13:00:00,,191,191,5,,,58,,57,,,,,,
08/25/2014  14:00:00,,218,218,4,,,66,,46,,,,,,
08/25/2014  15:00:00,,227,227,7,,,70,,38,,,,,,
08/25/2014  16:00:00,,241,241,7,,,74,,34,,,,,,
08/25/2014  17:00:00,,283,283,6,,,78,,34,,,,,,
08/25/2014  18:00:00,,184,184,5,,,81,,35,,,,,,
08/25/2014  19:00:00,,169,169,6,,,82,,30,,,,,,
08/25/2014  20:00:00,,153,153,9,,,82,,31,,,,,,
08/25/2014  21:00:00,,161,161,8,,,83,,31,,,,,,
08/25/2014  22:00:00,,167,167,9,,,81,,31,,,,,,
08/25/2014  23:00:00,,166,166,7,,,79,,33,,,,,,
08/26/2014  00:00:00,,144,144,7,,,76,,38,,,,,,
08/26/2014  01:00:00,,134,134,9,,,73,,40,,,,,,
08/26/2014  02:00:00,,141,141,11,,,69,,45,,,,,,
08/26/2014  03:00:00,,173,173,4,,,67,,47,,,,,,
08/26/2014  04:00:00,,182,182,5,,,65,,50,,,,,,
08/26/2014  05:00:00,,248,248,1,,,65,,50,,,,,,
08/26/2014  06:00:00,,156,156,4,,,63,,52,,,,,,
08/26/2014  07:00:00,,174,174,2,,,63,,53,,,,,,
08/26/2014  08:00:00,,205,205,3,,,63,,51,,,,,,
08/26/2014  09:00:00,,218,218,4,,,63,,47,,,,,,
08/26/2014  10:00:00,,230,230,4,,,64,,46,,,,,,
08/26/2014  11:00:00,,217,217,3,,,63,,46,,,,,,
08/26/2014  12:00:00,,196,196,4,,,62,,49,,,,,,
08/26/2014  13:00:00,,193,193,4,,,64,,48,,,,,,
08/26/2014  14:00:00,,238,238,6,,,72,,40,,,,,,
08/26/2014  15:00:00,,357,357,2,,,78,,34,,,,,,
08/26/2014  16:00:00,,37,37,3,,,81,,30,,,,,,
08/26/2014  17:00:00,,88,88,6,,,82,,31,,,,,,
08/26/2014  18:00:00,,132,132,5,,,84,,32,,,,,,
08/26/2014  19:00:00,,82,82,7,,,86,,28,,,,,,
08/26/2014  20:00:00,,78,78,7,,,88,,27,,,,,,
08/26/2014  21:00:00,,90,90,5,,,89,,24,,,,,,
08/26/2014  22:00:00,,85,85,6,,,87,,25,,,,,,
08/26/2014  23:00:00,,138,138,8,,,83,,26,,,,,,
08/27/2014  00:00:00,,143,143,6,,,79,,31,,,,,,
08/27/2014  01:00:00,,137,137,6,,,75,,37,,,,,,
08/27/2014  02:00:00,,150,150,9,,,72,,38,,,,,,
08/27/2014  03:00:00,,159,159,6,,,72,,39,,,,,,
08/27/2014  04:00:00,,97,97,3,,,69,,43,,,,,,
08/27/2014  05:00:00,,137,137,6,,,67,,47,,,,,,
08/27/2014  06:00:00,,139,139,2,,,66,,51,,,,,,
08/27/2014  07:00:00,,205,205,2,,,66,,49,,,,,,
08/27/2014  08:00:00,,220,220,4,,,65,,51,,,,,,
08/27/2014  09:00:00,,172,172,2,,,64,,52,,,,,,
08/27/2014  10:00:00,,194,194,0,,,66,,49,,,,,,
08/27/2014  11:00:00,,175,175,1,,,64,,50,,,,,,
08/27/2014  12:00:00,,326,326,0,,,65,,51,,,,,,
08/27/2014  13:00:00,,158,158,2,,,64,,52,,,,,,
08/27/2014  14:00:00,,276,276,1,,,71,,50,,,,,,
08/27/2014  15:00:00,,39,39,2,,,76,,41,,,,,,
08/27/2014  16:00:00,,6,6,2,,,80,,39,,,,,,
08/27/2014  17:00:00,,92,92,5,,,83,,33,,,,,,
08/27/2014  18:00:00,,127,127,6,,,86,,32,,,,,,
08/27/2014  19:00:00,,87,87,6,,,85,,33,,,,,,
08/27/2014  20:00:00,,70,70,5,,,90,,27,,,,,,
08/27/2014  21:00:00,,58,58,6,,,90,,25,,,,,,
08/27/2014  22:00:00,,65,65,6,,,89,,28,,,,,,
08/27/2014  23:00:00,,74,74,5,,,86,,32,,,,,,
08/28/2014  00:00:00,,102,102,7,,,80,,38,,,,,,
08/28/2014  01:00:00,,109,109,7,,,76,,43,,,,,,
08/28/2014  02:00:00,,150,150,7,,,71,,50,,,,,,
08/28/2014  03:00:00,,128,128,8,,,70,,56,,,,,,
08/28/2014  04:00:00,,137,137,8,,,67,,62,,,,,,
08/28/2014  05:00:00,,130,130,2,,,66,,63,,,,,,
08/28/2014  06:00:00,,165,165,2,,,64,,68,,,,,,
08/28/2014  07:00:00,,176,176,2,,,63,,70,,,,,,
08/28/2014  08:00:00,,169,169,3,,,60,,77,,,,,,
08/28/2014  09:00:00,,112,112,0,,,62,,73,,,,,,
08/28/2014  10:00:00,,233,233,0,,,60,,78,,,,,,
08/28/2014  11:00:00,,181,181,3,,,57,,84,,,,,,
08/28/2014  12:00:00,,192,192,3,,,57,,86,,,,,,
08/28/2014  13:00:00,,73,73,3,,,61,,75,,,,,,
08/28/2014  14:00:00,,88,88,2,,,68,,65,,,,,,
08/28/2014  15:00:00,,326,326,3,,,69,,64,,,,,,
08/28/2014  16:00:00,,330,330,3,,,74,,54,,,,,,
08/28/2014  17:00:00,,174,174,3,,,79,,47,,,,,,
08/28/2014  18:00:00,,99,99,7,,,78,,49,,,,,,
08/28/2014  19:00:00,,73,73,5,,,81,,40,,,,,,
08/28/2014  20:00:00,,64,64,6,,,83,,37,,,,,,
08/28/2014  21:00:00,,56,56,6,,,86,,32,,,,,,
08/28/2014  22:00:00,,68,68,5,,,84,,32,,,,,,
08/28/2014  23:00:00,,81,81,5,,,80,,36,,,,,,
08/29/2014  00:00:00,,84,84,8,,,75,,40,,,,,,
08/29/2014  01:00:00,,123,123,6,,,71,,46,,,,,,
08/29/2014  02:00:00,,153,153,8,,,67,,49,,,,,,
08/29/2014  03:00:00,,142,142,5,,,65,,55,,,,,,
08/29/2014  04:00:00,,145,145,10,,,63,,68,,,,,,
08/29/2014  05:00:00,,154,154,2,,,59,,77,,,,,,
08/29/2014  06:00:00,,32,32,1,,,60,,76,,,,,,
08/29/2014  07:00:00,,181,181,2,,,58,,80,,,,,,
08/29/2014  08:00:00,,189,189,4,,,55,,85,,,,,,
08/29/2014  09:00:00,,198,198,4,,,55,,88,,,,,,
08/29/2014  10:00:00,,41,41,1,,,57,,82,,,,,,
08/29/2014  11:00:00,,74,74,0,,,55,,88,,,,,,
08/29/2014  12:00:00,,38,38,0,,,54,,89,,,,,,
08/29/2014  13:00:00,,218,218,1,,,56,,83,,,,,,
08/29/2014  14:00:00,,308,308,2,,,62,,73,,,,,,
08/29/2014  15:00:00,,22,22,2,,,66,,65,,,,,,
08/29/2014  16:00:00,,73,73,5,,,69,,61,,,,,,
08/29/2014  17:00:00,,105,105,6,,,70,,59,,,,,,
08/29/2014  18:00:00,,70,70,5,,,75,,51,,,,,,
08/29/2014  19:00:00,,87,87,6,,,76,,47,,,,,,
08/29/2014  20:00:00,,67,67,7,,,78,,38,,,,,,
08/29/2014  21:00:00,,72,72,6,,,80,,33,,,,,,
08/29/2014  22:00:00,,73,73,6,,,75,,42,,,,,,
08/29/2014  23:00:00,,95,95,9,,,69,,57,,,,,,
08/30/2014  00:00:00,,117,117,8,,,67,,59,,,,,,
08/30/2014  01:00:00,,101,101,5,,,65,,64,,,,,,
08/30/2014  02:00:00,,129,129,8,,,60,,75,,,,,,
08/30/2014  03:00:00,,124,124,10,,,58,,77,,,,,,
08/30/2014  04:00:00,,126,126,7,,,56,,82,,,,,,
08/30/2014  05:00:00,,118,118,8,,,55,,87,,,,,,
08/30/2014  06:00:00,,166,166,2,,,54,,94,,,,,,
08/30/2014  07:00:00,,245,245,3,,,53,,95,,,,,,
08/30/2014  08:00:00,,223,223,2,,,52,,98,,,,,,
08/30/2014  09:00:00,,241,241,3,,,53,,99,,,,,,
08/30/2014  10:00:00,,258,258,1,,,53,,95,,,,,,
08/30/2014  11:00:00,,233,233,1,,,54,,88,,,,,,
08/30/2014  12:00:00,,38,38,2,,,53,,93,,,,,,
08/30/2014  13:00:00,,8,8,1,,,53,,91,,,,,,
08/30/2014  14:00:00,,14,14,1,,,56,,81,,,,,,
08/30/2014  15:00:00,,50,50,2,,,61,,70,,,,,,
08/30/2014  16:00:00,,27,27,3,,,65,,64,,,,,,
08/30/2014  17:00:00,,24,24,4,,,68,,57,,,,,,
08/30/2014  18:00:00,,10,10,4,,,69,,55,,,,,,
08/30/2014  19:00:00,,92,92,9,,,58,,90,,,,,,
08/30/2014  20:00:00,,81,81,9,,,56,,96,,,,,,
08/30/2014  21:00:00,,86,86,7,,,55,,98,,,,,,
08/30/2014  22:00:00,,96,96,8,,,55,,98,,,,,,
08/30/2014  23:00:00,,66,66,5,,,56,,96,,,,,,
08/31/2014  00:00:00,,63,63,2,,,57,,95,,,,,,
08/31/2014  01:00:00,,56,56,1,,,55,,97,,,,,,
08/31/2014  02:00:00,,4,4,1,,,54,,98,,,,,,
08/31/2014  03:00:00,,53,53,1,,,52,,99,,,,,,
08/31/2014  04:00:00,,152,152,10,,,50,,99,,,,,,